{"data":{"norad_id":55307,"intl_designator":"2023-010AQ","name":"STARLINK-5288","alt_names":[],"object_type":"PAYLOAD","status":"ACTIVE","operator":null,"country":"US","launch_date":"2023-01-19","launch_site_code":"AFWTR","launch_vehicle":null,"mission":null,"orbit_class":"UNKNOWN","rcs_meters":null,"size_class":null,"mass_kg":null,"dimensions":null,"purposes":["comms"],"wikipedia_slug":null,"has_3d_model":false,"image_url":null,"decayed_at":null,"tle_current":{"epoch":"2026-09-20T22:00:03.000096Z","epoch_age_seconds":56769,"freshness":"FRESH","line1":"1 55307U 23010AQ  26263.91670139  .00058299  00000+0  39363-2 0  9999","line2":"2 55307  69.9999 232.3040 0002847 314.5685  37.3811 15.06274718  5717","mean_motion":15.06274718,"eccentricity":0.0002847,"inclination_deg":69.9999,"raan_deg":232.304,"arg_perigee_deg":314.5685,"mean_anomaly_deg":37.3811,"bstar":0.0039363,"rev_number":571,"period_min":95.600090925778,"perigee_km":545.62379977897,"apogee_km":549.56731189626,"semimajor_km":6925.7325558376,"source":"CELESTRAK","updated_at":"2026-09-21T09:00:33.173450Z"}}}